Regional Weather Roundup
Issued by NWS

Home | Current Version | Previous Version | Text Only | Print | Product List | Glossary On
Versions: 1 2 3 4 5 6 7 8 9 10 11 12 13 14 15 16 17 18 19 20 21 22 23 24 25 26 27 28 29 30 31 32 33 34 35 36 37 38 39 40 41 42 43 44 45 46 47 48 49 50
000
ASUS43 KOAX 271110
RWRNE

WEATHER ROUNDUP FOR NEBRASKA
NATIONAL WEATHER SERVICE OMAHA NE
500 AM CST FRI FEB 27 2015

NOTES: SATELLITE DATA IS BEING USED TO AUGMENT CLOUD COVER ABOVE
       12000 FEET.
       "FAIR" INDICATES FEW OR NO CLOUDS BELOW 12,000 FEET WITH NO
       SIGNIFICANT WEATHER AND/OR OBSTRUCTIONS TO VISIBILITY.

  * THESE STATIONS DO NOT REPORT WEATHER SUCH AS RAIN...SNOW OR FOG.

NEZ001>004-019>022-054>056-271200-
NEBRASKA PANHANDLE

CITY           SKY/WX    TMP DP  RH WIND       PRES   REMARKS
SCOTTSBLUFF    CLOUDY     7   0  73 SE15      30.21F WCI -10
ALLIANCE       CLOUDY     3  -2  79 S13       30.23F WCI -14
CHADRON        MOCLDY    -5 -11  75 NE3       30.27F
KIMBALL        LGT SNOW   3  -1  84 SE9       30.09F WCI -11
SIDNEY         LGT SNOW   5  -1  76 SE15      30.19F WCI -13
$$

NEZ057>060-069>072-079>082-271200-
SOUTHWEST NEBRASKA

CITY           SKY/WX    TMP DP  RH WIND       PRES   REMARKS
NORTH PLATTE   CLEAR     -4  -9  79 NE3       30.40F
IMPERIAL       CLOUDY     6  -3  66 SE10      30.33F WCI  -9
LEXINGTON      CLEAR     -3  -8  81 N3        30.45S
MCCOOK         CLOUDY     9  -1  64 E8        30.42F WCI  -3
OGALLALA       CLOUDY     5  -2  73 SE8       30.34S WCI  -8
$$

NEZ005>010-023>029-035>040-094-271200-
NORTH CENTRAL NEBRASKA

CITY           SKY/WX    TMP DP  RH WIND       PRES   REMARKS
VALENTINE      CLEAR     -7 -12  79 CALM      30.39F
AINSWORTH      CLEAR     -4  -9  79 SW5       30.40S WCI -15
BROKEN BOW     CLEAR     -7 -14  71 SW3       30.42S
O`NEILL        CLEAR     -5  -9  83 CALM      30.48S
ORD            CLEAR     -8 -15  71 CALM      30.47F
THEDFORD       CLEAR     -5 -10  80 CALM      30.37S
$$

NEZ041-046>049-061>064-073>077-083>087-271200-
SOUTH CENTRAL NEBRASKA

CITY           SKY/WX    TMP DP  RH WIND       PRES   REMARKS
GRAND ISLAND   CLEAR     -2  -9  72 CALM      30.52S
AURORA         CLEAR     -7 -12  79 CALM      30.51S
HASTINGS       CLEAR     -1  -8  72 CALM      30.49S
HEBRON         CLEAR      0  -5  80 CALM      30.56R
HOLDREGE       CLEAR     -1  -7  76 CALM      30.46S
KEARNEY *      CLEAR     -2  -9  71 NW3       30.48S
YORK             N/A     -2  -8  78 CALM      30.53S
$$

NEZ011>018-030>034-042>045-271200-
NORTHEAST NEBRASKA

CITY           SKY/WX    TMP DP  RH WIND       PRES   REMARKS
NORFOLK        CLEAR     -8 -12  83 SW5       30.53S WCI -19
ALBION         CLEAR     -8 -13  76 CALM      30.51S
BLAIR          CLEAR     -3  -8  77 NW6       30.55S WCI -15
COLUMBUS *     CLEAR     -8 -20  54 NW5       30.55F WCI -19
FREMONT        CLEAR     -3  -8  79 CALM      30.58S
TEKAMAH        FAIR      -3 -10  72 CALM      30.60S
WAYNE          FAIR     -10 -15  78 S3        30.56R
$$

NEZ050>053-065>068-078-088>093-271200-
SOUTHEAST NEBRASKA

CITY           SKY/WX    TMP DP  RH WIND       PRES   REMARKS
LINCOLN        CLEAR     -3  -8  79 N5        30.59S WCI -13
OMAHA EPPLEY   CLEAR     -2  -7  79 NW5       30.60S WCI -12
BEATRICE       CLEAR     -3  -7  84 CALM      30.56S
FALLS CITY     CLEAR     -4  -8  83 NW3       30.60R
NEBRASKA CITY  CLEAR     -1  -8  72 N3        30.58S
PLATTSMOUTH    CLEAR     -2  -7  81 W3        30.58R
$$

NEZ044-045-051>053-067-271200-
OMAHA AREA

CITY           SKY/WX    TMP DP  RH WIND       PRES   REMARKS
OMAHA EPPLEY   CLEAR     -2  -7  79 NW5       30.60S WCI -12
BLAIR          CLEAR     -3  -8  77 NW6       30.55S WCI -15
FREMONT        CLEAR     -3  -8  79 CALM      30.58S
MILLARD        CLEAR      1  -6  75 CALM      30.60S
OFFUTT AFB     CLEAR     -1  -6  77 NW6       30.59S WCI -12
PLATTSMOUTH    CLEAR     -2  -7  81 W3        30.58R
WAHOO          FAIR      -4 -10  75 NW5       30.58S WCI -15
$$


USA.gov is the U.S. government's official web portal to all federal, state and local government web resources and services.